English version Home page |
Updated on December 14, 2013 |
プロフィール
|
軌道要素Epoch 2010 June 13.0 TT = JDT 2455360.5 T 2010 June 8.03892 TT MPC q 3.2133737 (2000.0) P Q n 0.12217694 Peri. 222.45292 +0.45162378 +0.86609738 a 4.0223194 Node 75.44085 -0.74758472 +0.49842408 e 0.2011142 Incl. 12.78998 -0.48698362 +0.03806276 P 8.07 From 235 observations 1994 Sept. 11-2012 Dec. 8, mean residual 0".6. Nongravitational parameters A1 = +0.22, A2 = -1.1689.
|
星図
|
光度変化m1 = 4.5 + 5 logΔ + 21.0 log r(t - 180)
|
軌道要素はM.P.E.C. 2012-X53に掲載されたものです。
|